This demonstration page uses our WeatherBlox Daily Observations layout. Learn more.

Left ArrowRight Arrow

Hourly Observations for February 3, 2020

Temp ( °F °C ) Dew Point ( °F °C ) Humidity (%) Winds ( mph kmh ) Pressure ( in mb ) Visibility ( mi km ) Precip ( " mm )
12:53 am 00:53 Clear 18 -7.8 14 -10 84 84 SSW 3 6 30.05 1018 10 16 0.00 0.00
1:53 am 01:53 Clear 18 -7.8 15 -9.4 88 88 SW 7 11 30.05 1018 10 16 0.00 0.00
2:53 am 02:53 Clear 17 -8.3 13 -10.6 84 84 SW 5 7 30.05 1018 10 16 0.00 0.00
3:53 am 03:53 Clear 17 -8.3 13 -10.6 84 84 WSW 5 7 30.05 1018 10 16 0.00 0.00
4:53 am 04:53 Clear 18 -7.8 14 -10 84 84 W 6 9 30.06 1018 10 16 0.00 0.00
5:53 am 05:53 Clear 17 -8.3 13 -10.6 84 84 SW 9 15 30.08 1019 10 16 0.00 0.00
6:53 am 06:53 Clear 17 -8.3 13 -10.6 84 84 SW 12 19 30.09 1019 10 16 0.00 0.00
7:53 am 07:53 Sunny 18 -7.8 13 -10.6 81 81 SSW 15 24 30.11 1020 10 16 0.00 0.00
8:53 am 08:53 Sunny 18 -7.8 13 -10.6 81 81 WSW 13 20 30.12 1020 10 16 0.00 0.00
9:53 am 09:53 Sunny 21 -6.1 16 -8.9 81 81 SW 16 26 30.13 1020 10 16 0.00 0.00
10:53 am 10:53 Sunny 26 -3.3 17 -8.3 69 69 WSW 15 24 30.12 1020 10 16 0.00 0.00
11:53 am 11:53 Sunny 28 -2.2 14 -10 56 56 WSW 10 17 30.12 1020 10 16 0.00 0.00
12:53 pm 12:53 Sunny 31 -0.6 13 -10.6 47 47 W 9 15 30.10 1019 10 16 0.00 0.00
1:53 pm 13:53 Sunny 30 -1.1 14 -10 51 51 NNW 13 20 30.12 1020 10 16 0.00 0.00
2:53 pm 14:53 Mostly Sunny 28 -2.2 15 -9.4 58 58 NNE 13 20 30.14 1021 10 16 0.00 0.00
3:03 pm 15:03 Mostly Sunny 27 -2.8 13 -10.6 55 55 NNE 13 20 30.16 1021 10 16 0.00 0.00
3:53 pm 15:53 Sunny 26 -3.3 10 -12.2 51 51 NE 10 17 30.17 1022 10 16 0.00 0.00
4:53 pm 16:53 Mostly Sunny 23 -5 11 -11.7 60 60 NNE 6 9 30.21 1023 10 16 0.00 0.00
5:53 pm 17:53 Cloudy 23 -5 12 -11.1 63 63 N 9 15 30.24 1024 10 16 0.00 0.00
6:53 pm 18:53 Cloudy 21 -6.1 12 -11.1 68 68 NNE 14 22 30.27 1025 10 16 0.00 0.00
7:53 pm 19:53 Cloudy 20 -6.7 13 -10.6 74 74 NE 8 13 30.29 1026 10 16 0.00 0.00
8:53 pm 20:53 Clear 18 -7.8 12 -11.1 77 77 NNE 5 7 30.31 1026 10 16 0.00 0.00
9:53 pm 21:53 Clear 16 -8.9 12 -11.1 84 84 E 6 9 30.31 1027 10 16 0.00 0.00
10:53 pm 22:53 Clear 12 -11.1 7 -13.9 80 80 Calm 30.33 1027 10 16 0.00 0.00
11:53 pm 23:53 Clear 14 -10 9 -12.8 80 80 NE 3 6 30.32 1027 10 16 0.00 0.00

Powered by AerisWeather